Needles, CA

4:18 PM PST on November 18, 2017 (GMT -0800)
Needles

Weather History for KEED - July, 2013

Change the Weather History Date:

Saturday, July 13, 2013

  Actual Average Record
Temperature  
Mean Temperature 97 °F 97 °F  
Max Temperature 109 °F 109 °F 123 °F (2005)
Min Temperature 86 °F 85 °F 65 °F (1924)
Degree Days  
Heating Degree Days 0    
Cooling Degree Days 32    
Growing Degree Days 47 (Base 50)    
Moisture  
Dew Point 58 °F    
Average Humidity 28    
Maximum Humidity 48    
Minimum Humidity 16    
Precipitation  
Precipitation 0.00 in 0.00 in 0.37 in (1918)
Month to date precipitation 0.05  
Year to date precipitation 2.43  
Sea Level Pressure  
Sea Level Pressure 29.70 in    
Wind  
Wind Speed 3 mph (SW)    
Max Wind Speed 10 mph    
Max Gust Speed 18 mph    
Visibility 10 miles    
Events      
T = Trace of Precipitation, MM = Missing Value Source: NWS Daily Summary

Daily Weather History Graph

Daily Weather History Graph

Search for Another Location

Airport or City:

Trip Planner

Search our weather history database for the weather conditions in past years. The results will help you decide how hot, cold, wet, or windy it might be!

Date:

Astronomy

Jul. 13, 2013 Rise Set
Actual Time 5:35 AM PDT 7:52 PM PDT
Civil Twilight 5:06 AM PDT 8:21 PM PDT
Nautical Twilight 4:30 AM PDT 8:57 PM PDT
Astronomical Twilight 3:52 AM PDT 9:35 PM PDT
Moon 10:40 AM PDT (7/13) 10:51 PM PDT (7/13)
Length of Visible Light 15h 15m
Length of Day
14h 17m
Waxing Crescent, 26% of the Moon is Illuminated
Jul 13
Waxing Crescent
Jul 15
First Quarter
Jul 22
Full
Jul 29
Last Quarter
Aug 6
New

Hourly Weather History & Observations

Time (PDT) Temp. Heat Index Dew Point Humidity Pressure Visibility Wind Dir Wind Speed Gust Speed Precip Events Conditions
12:56 AM 90.0 °F 91.3 °F 64.0 °F 42% 29.70 in 10.0 mi Calm Calm - N/A   Clear
1:56 AM 89.1 °F 91.3 °F 66.0 °F 46% 29.70 in 10.0 mi Calm Calm - N/A   Clear
2:56 AM 88.0 °F 89.6 °F 64.9 °F 46% 29.70 in 10.0 mi Calm Calm - N/A   Clear
3:56 AM 87.1 °F 87.8 °F 63.0 °F 44% 29.71 in 10.0 mi South 3.5 mph - N/A   Clear
4:56 AM 86.0 °F 87.3 °F 64.0 °F 48% 29.72 in 10.0 mi Calm Calm - N/A   Clear
5:56 AM 87.1 °F 87.8 °F 63.0 °F 44% 29.74 in 10.0 mi Calm Calm - N/A   Clear
6:56 AM 89.1 °F 89.3 °F 62.1 °F 40% 29.76 in 10.0 mi Calm Calm - N/A   Clear
7:56 AM 91.0 °F 91.5 °F 62.1 °F 38% 29.78 in 10.0 mi Calm Calm - N/A   Mostly Cloudy
8:56 AM 96.1 °F 96.4 °F 61.0 °F 31% 29.78 in 10.0 mi Calm Calm - N/A   Clear
9:56 AM 97.0 °F 97.4 °F 61.0 °F 30% 29.78 in 10.0 mi Calm Calm - N/A   Clear
10:56 AM 100.9 °F 101.6 °F 60.1 °F 26% 29.76 in 10.0 mi Calm Calm - N/A   Clear
11:56 AM 102.9 °F 103.0 °F 57.9 °F 23% 29.75 in 10.0 mi SSW 9.2 mph - N/A   Partly Cloudy
12:56 PM 106.0 °F 105.8 °F 57.0 °F 20% 29.73 in 10.0 mi SSE 9.2 mph - N/A   Partly Cloudy
1:56 PM 106.0 °F 105.1 °F 55.9 °F 19% 29.70 in 10.0 mi South 10.4 mph 18.4 mph N/A   Scattered Clouds
2:56 PM 107.1 °F 106.7 °F 55.9 °F 19% 29.68 in 10.0 mi West 9.2 mph - N/A   Scattered Clouds
3:56 PM 107.1 °F - 52.0 °F 16% 29.65 in 10.0 mi Calm Calm - N/A   Mostly Cloudy
4:56 PM 108.0 °F - 52.0 °F 16% 29.63 in 10.0 mi SSW 10.4 mph 16.1 mph N/A   Mostly Cloudy
5:56 PM 108.0 °F - 52.0 °F 16% 29.62 in 10.0 mi Calm Calm - N/A   Mostly Cloudy
6:56 PM 107.1 °F 105.4 °F 53.1 °F 17% 29.62 in 10.0 mi SW 3.5 mph - N/A   Mostly Cloudy
7:56 PM 105.1 °F 103.3 °F 54.0 °F 18% 29.63 in 10.0 mi WSW 6.9 mph - N/A   Mostly Cloudy
8:56 PM 102.9 °F 100.9 °F 53.1 °F 19% 29.64 in 10.0 mi WSW 6.9 mph - N/A   Partly Cloudy
9:56 PM 102.0 °F 100.1 °F 54.0 °F 20% 29.66 in 10.0 mi SW 10.4 mph - N/A   Partly Cloudy
10:56 PM 100.0 °F - 52.0 °F 20% 29.66 in 10.0 mi SW 10.4 mph - N/A   Clear
11:56 PM 99.0 °F 96.5 °F 53.1 °F 21% 29.66 in 10.0 mi WSW 10.4 mph - N/A   Clear